sat.trackr.live / text

‹ back to catalog

STARLINK-34137

NORAD 63953 · 2025-099B

PAYLOAD ACTIVE UNKNOWN

§ Identity

Operator
Country
US
Launch date
2025-05-13
Launch site
AFETR
Launch vehicle
Mass (kg)
RCS (m²)

Purposes: comms

External: N2YO · Heavens-Above · Gunter

§ Orbital elements

Epoch: 2026-09-20T23:38:59.795520Z

Period
94.27 min
Inclination
42.9985°
Eccentricity
0.0000843
Mean motion
15.27588695 rev/d
Perigee alt
482.4 km
Apogee alt
483.6 km
Semi-major
6,861.2 km
B*
3.7651e-4
RAAN
153.3434°
Arg perigee
265.9748°
Mean anomaly
94.1007°
Rev number
7,720

§ Raw data

STARLINK-341371 63953U 25099B   26263.98541430  .00010116  00000+0  37651-3 0  99972 63953  42.9985 153.3434 0000843 265.9748  94.1007 15.27588695 77207

JSON: /api/v1/satellites/63953 · /tle

For live sub-satellite position, see the globe view (requires WebGL).

§ Visibility from observer

Set your observer location to see the next 7 days of passes ≥ 10°. The values pass through the URL so the page stays shareable.

No JS? Fill the form by hand. The geolocation button needs JavaScript.